DW9493 Weather Reports


Display with metric or nautical units.
time (UTC)temp
F
wind
direction
speed
MPH
gust
MPH
rain 1hr
in
rain 24hr
in
rain mn
in
humidity
%
barometer
mb
20260510191100 56 89 3.0 7.0 0.00 0.00 0.00 44 1027.9
20260510185102 56 56 3.0 12.0 0.00 0.00 0.00 44 1027.9
20260510184058 57 91 2.0 8.0 0.00 0.00 0.00 45 1028.0
20260510183531 56 333 3.0 14.0 0.00 0.00 0.00 47 1027.9
20260510182056 55 102 3.0 10.0 0.00 0.00 0.00 48 1028.0
20260510181056 55 15 3.0 8.0 0.00 0.00 0.00 48 1028.1
20260510180058 55 40 3.0 6.0 0.00 0.00 0.00 49 1028.3
20260510175535 55 34 2.0 8.0 0.00 0.00 0.00 50 1028.1
20260510174052 55 102 3.0 10.0 0.00 0.00 0.00 49 1028.3
20260510173052 55 22 3.0 10.0 0.00 0.00 0.00 53 1028.1
20260510172052 54 110 3.0 9.0 0.00 0.00 0.00 52 1028.1
20260510171053 54 50 3.0 11.0 0.00 0.00 0.00 49 1028.0
20260510170051 55 62 3.0 8.0 0.00 0.00 0.00 50 1028.0
20260510170011 55 53 2.0 9.0 0.00 0.00 0.00 48 1028.1
20260510164054 55 94 2.0 8.0 0.00 0.00 0.00 48 1028.0
20260510163051 54 88 3.0 7.0 0.00 0.00 0.00 47 1027.9
20260510162052 55 80 1.0 6.0 0.00 0.00 0.00 48 1028.0
20260510161054 53 84 2.0 8.0 0.00 0.00 0.00 50 1027.9
20260510160054 54 83 1.0 6.0 0.00 0.00 0.00 45 1027.9
20260510155053 52 267 1.0 5.0 0.00 0.00 0.00 46 1027.8
20260510154052 52 8 1.0 6.0 0.00 0.00 0.00 45 1027.9
20260510153052 51 322 0.0 2.0 0.00 0.00 0.00 49 1027.8
20260510152053 50 215 1.0 2.0 0.00 0.00 0.00 55 1027.6
20260510151050 50 9 0.0 3.0 0.00 0.00 0.00 58 1027.8
20260510150536 49 50 1.0 7.0 0.00 0.00 0.00 63 1027.8
20260510145524 49 36 0.0 3.0 0.00 0.00 0.00 66 1027.6
20260510144534 48 61 0.0 3.0 0.00 0.00 0.00 67 1027.6
20260510143046 47 16 0.0 1.0 0.00 0.00 0.00 70 1027.8
20260510142045 45 308 1.0 3.0 0.00 0.00 0.00 73 1027.9
20260510141043 44 326 1.0 3.0 0.00 0.00 0.00 77 1027.8
20260510140043 43 321 0.0 3.0 0.00 0.00 0.00 80 1027.8
20260510135514 44 305 0.0 2.0 0.00 0.00 0.00 81 1028.0
20260510134041 43 328 0.0 1.0 0.00 0.00 0.00 84 1027.9
20260510133035 42 55 0.0 1.0 0.00 0.00 0.00 89 1028.0
20260510132036 40 95 0.0 1.0 0.00 0.00 0.00 90 1028.0
20260510131036 40 95 0.0 1.0 0.00 0.00 0.00 91 1028.1
20260510130033 40 95 0.0 1.0 0.00 0.00 0.00 92 1028.1
20260510125032 39 95 0.0 1.0 0.00 0.00 0.00 92 1028.0
20260510124032 39 112 0.0 0.0 0.00 0.00 0.00 92 1028.0
20260510123027 39 111 0.0 0.0 0.00 0.00 0.00 92 1028.0
20260510122021 39 112 0.0 0.0 0.00 0.00 0.00 92 1027.8
20260510121002 39 112 0.0 1.0 0.00 0.00 0.00 93 1027.8
20260510115936 39 112 0.0 0.0 0.00 0.00 0.00 92 1027.6
20260510115413 39 112 0.0 1.0 0.00 0.00 0.00 92 1027.5
20260510113934 39 112 0.0 1.0 0.00 0.00 0.00 92 1027.4
20260510112935 39 112 0.0 1.0 0.00 0.00 0.00 92 1027.4
20260510111936 39 94 0.0 2.0 0.00 0.00 0.00 92 1027.4
20260510110932 39 122 0.0 2.0 0.00 0.00 0.00 92 1027.3
20260510105932 39 317 0.0 0.0 0.00 0.00 0.00 91 1027.3
20260510104933 39 318 0.0 0.0 0.00 0.00 0.00 91 1027.0
20260510103932 39 318 0.0 1.0 0.00 0.00 0.00 91 1027.0
20260510102933 39 317 0.0 1.0 0.00 0.00 0.00 91 1026.9
20260510101930 39 317 0.0 1.0 0.00 0.00 0.00 91 1026.9
20260510100930 39 318 0.0 1.0 0.00 0.00 0.00 91 1026.9
20260510100259 38 39 0.0 1.0 0.00 0.00 0.00 92 1026.6
20260510095931 39 318 0.0 1.0 0.00 0.00 0.00 92 1026.8
20260510093859 38 108 0.0 1.0 0.00 0.00 0.00 93 1026.6
20260510092858 38 108 0.0 0.0 0.00 0.00 0.00 93 1026.4
20260510091859 38 108 0.0 0.0 0.00 0.00 0.00 92 1026.4
20260510090858 37 108 0.0 0.0 0.00 0.00 0.00 92 1026.4
20260510085900 38 108 0.0 0.0 0.00 0.00 0.00 91 1026.3
20260510085330 38 108 0.0 0.0 0.00 0.00 0.00 90 1026.0
20260510083857 38 108 0.0 1.0 0.00 0.00 0.00 90 1026.0
20260510083347 39 106 0.0 1.0 0.00 0.00 0.00 89 1026.0
20260510081856 39 106 0.0 1.0 0.00 0.00 0.00 88 1026.1
20260510080857 39 68 0.0 1.0 0.00 0.00 0.00 87 1026.3
20260510080806 40 110 0.0 3.0 0.00 0.00 0.00 87 1026.1
20260510074858 40 101 0.0 2.0 0.00 0.00 0.00 87 1026.4
20260510073839 40 113 0.0 2.0 0.00 0.00 0.00 86 1026.4
20260510072810 40 41 0.0 1.0 0.00 0.00 0.00 86 1026.5
20260510071812 40 31 0.0 2.0 0.00 0.00 0.00 85 1026.8
20260510070812 40 56 0.0 1.0 0.00 0.00 0.00 84 1026.8
20260510065810 40 56 0.0 1.0 0.00 0.00 0.00 84 1026.8
20260510064811 40 53 0.0 1.0 0.00 0.00 0.00 84 1026.8
20260510063810 40 53 0.0 1.0 0.00 0.00 0.00 84 1026.9
20260510062750 40 29 0.0 2.0 0.00 0.00 0.00 84 1026.8
20260510061732 40 117 0.0 3.0 0.00 0.00 0.00 84 1026.9
20260510060728 41 125 0.0 2.0 0.00 0.00 0.00 84 1026.6
20260510055727 41 67 0.0 1.0 0.00 0.00 0.00 84 1026.8
20260510054727 41 67 0.0 4.0 0.00 0.00 0.00 83 1026.8
20260510054212 41 343 1.0 5.0 0.00 0.00 0.00 83 1026.9
20260510052726 41 308 2.0 7.0 0.00 0.00 0.00 82 1027.0
20260510051725 41 354 2.0 6.0 0.00 0.00 0.00 82 1026.9
20260510050713 41 308 0.0 5.0 0.00 0.00 0.00 81 1027.0
20260510050154 41 124 0.0 2.0 0.00 0.00 0.00 81 1026.9
20260510044703 41 333 2.0 8.0 0.00 0.00 0.00 82 1026.8
20260510043705 41 319 0.0 3.0 0.00 0.00 0.00 81 1027.1
20260510042703 41 324 1.0 5.0 0.00 0.00 0.00 82 1027.1
20260510041702 41 67 3.0 9.0 0.00 0.00 0.00 82 1027.1
20260510040702 41 347 3.0 11.0 0.00 0.00 0.00 82 1026.8
20260510035702 42 8 4.0 11.0 0.00 0.00 0.00 82 1026.9
20260510034702 42 326 3.0 9.0 0.00 0.00 0.00 81 1026.8
20260510033703 42 25 3.0 10.0 0.00 0.00 0.00 81 1026.5
20260510032702 43 85 1.0 4.0 0.00 0.00 0.00 81 1026.3
20260510031702 43 40 2.0 9.0 0.00 0.00 0.00 80 1026.0
20260510030700 43 36 1.0 6.0 0.00 0.00 0.00 81 1026.0
20260510025700 43 262 3.0 8.0 0.00 0.00 0.00 81 1025.9
20260510024646 43 336 4.0 15.0 0.00 0.00 0.00 81 1025.4
20260510023640 43 322 8.0 17.0 0.00 0.00 0.00 81 1024.7
20260510022641 43 304 5.0 14.0 0.00 0.00 0.00 80 1024.5
20260510021639 44 333 6.0 15.0 0.00 0.00 0.00 79 1024.1
20260510020641 44 25 4.0 16.0 0.00 0.00 0.00 76 1023.7
20260510015639 45 319 9.0 22.0 0.00 0.00 0.00 73 1022.9
20260510015122 47 325 10.0 22.0 0.00 0.00 0.00 69 1022.4
20260510013616 49 4 11.0 29.0 0.00 0.00 0.00 62 1021.7
20260510012617 53 23 7.0 19.0 0.00 0.00 0.00 54 1021.1
20260510011610 59 18 6.0 14.0 0.00 0.00 0.00 38 1020.8
20260510010608 62 314 8.0 18.0 0.00 0.00 0.00 15 1020.2
20260510005606 62 349 9.0 21.0 0.00 0.00 0.00 16 1020.1
20260510004606 63 334 5.0 23.0 0.00 0.00 0.00 16 1019.8
20260510003607 62 307 5.0 15.0 0.00 0.00 0.00 17 1019.7
20260510002605 63 27 0.0 5.0 0.00 0.00 0.00 26 1019.6
20260510001604 62 43 3.0 6.0 0.00 0.00 0.00 26 1019.5
20260510000606 63 327 2.0 7.0 0.00 0.00 0.00 25 1019.5
20260510000039 63 322 0.0 3.0 0.00 0.00 0.00 26 1019.2
20260509234602 63 95 1.0 5.0 0.00 0.00 0.00 27 1019.0
20260509233601 64 120 0.0 3.0 0.00 0.00 0.00 25 1019.0
20260509232601 63 91 1.0 4.0 0.00 0.00 0.00 27 1018.8
20260509231601 63 131 2.0 6.0 0.00 0.00 0.00 27 1018.8
20260509230546 62 107 2.0 7.0 0.00 0.00 0.00 26 1018.8
20260509225545 63 51 1.0 3.0 0.00 0.00 0.00 27 1018.8
20260509224546 63 49 1.0 4.0 0.00 0.00 0.00 26 1019.0
20260509223547 63 108 1.0 4.0 0.00 0.00 0.00 27 1018.8
20260509222547 63 79 1.0 8.0 0.00 0.00 0.00 26 1018.8
20260509221546 63 79 2.0 5.0 0.00 0.00 0.00 26 1018.6
20260509220546 63 47 2.0 9.0 0.00 0.00 0.00 25 1018.7
20260509215545 62 215 2.0 6.0 0.00 0.00 0.00 26 1018.7
20260509214542 62 134 2.0 6.0 0.00 0.00 0.00 26 1018.8
20260509213540 63 29 3.0 10.0 0.00 0.00 0.00 26 1019.1
20260509212540 64 107 5.0 14.0 0.00 0.00 0.00 24 1018.7
20260509212014 65 126 3.0 10.0 0.00 0.00 0.00 24 1019.0
20260509210539 64 316 4.0 12.0 0.00 0.00 0.00 17 1018.8
20260509205538 65 325 7.0 19.0 0.00 0.00 0.00 18 1018.6
20260509204537 66 330 7.0 17.0 0.00 0.00 0.00 19 1018.4
20260509204022 65 342 4.0 8.0 0.00 0.00 0.00 18 1018.6
20260509202536 66 334 6.0 14.0 0.00 0.00 0.00 17 1018.6
20260509201536 66 273 5.0 14.0 0.00 0.00 0.00 19 1018.7
20260509200529 65 245 6.0 13.0 0.00 0.00 0.00 18 1018.7
20260509195524 64 335 5.0 14.0 0.00 0.00 0.00 18 1018.7
20260509195005 64 19 5.0 13.0 0.00 0.00 0.00 19 1018.7
20260509193522 65 309 5.0 17.0 0.00 0.00 0.00 20 1018.8
20260509192512 65 259 6.0 14.0 0.00 0.00 0.00 18 1019.0